Faith, SD

5:37 AM MDT on May 30, 2017 (GMT -0600)
Faith

Weather History for KD07 - November, 2013

Change the Weather History Date:

Saturday, November 9, 2013

  Actual Average Record
Temperature  
Mean Temperature 34 °F 36 °F  
Max Temperature 45 °F 47 °F 75 °F (2016)
Min Temperature 22 °F 25 °F 5 °F (2000)
Degree Days  
Heating Degree Days 31 29  
Month to date heating degree days 248 242  
Since 1 July heating degree days 1030 1041  
Cooling Degree Days 0 0  
Month to date cooling degree days 0 0  
Year to date cooling degree days 720 635  
Moisture  
Dew Point 25 °F    
Average Humidity 61    
Maximum Humidity 82    
Minimum Humidity 40    
Precipitation  
Precipitation 0.00 in 0.04 in 0.15 in (1998)
Month to date precipitation 0.16 0.34  
Year to date precipitation 16.27 17.07  
Sea Level Pressure  
Sea Level Pressure 30.23 in    
Wind  
Wind Speed 14 mph (WNW)    
Max Wind Speed 29 mph    
Max Gust Speed 36 mph    
T = Trace of Precipitation, MM = Missing Value Source: NWS Daily Summary

Daily Weather History Graph

Daily Weather History Graph

Search for Another Location

Airport or City:

Trip Planner

Search our weather history database for the weather conditions in past years. The results will help you decide how hot, cold, wet, or windy it might be!

Date:

Astronomy

Nov. 09, 2013 Rise Set
Actual Time 6:38 AM MST 4:25 PM MST
Civil Twilight 6:06 AM MST 4:56 PM MST
Nautical Twilight 5:31 AM MST 5:31 PM MST
Astronomical Twilight 4:57 AM MST 6:06 PM MST
Moon 12:13 PM MST (11/9) 11:01 PM MST (11/9)
Length of Visible Light 10h 49m
Length of Day
9h 47m
Waxing Crescent, 45% of the Moon is Illuminated
Nov 9
Waxing Crescent
Nov 9
First Quarter
Nov 17
Full
Nov 25
Last Quarter
Dec 2
New

Hourly Weather History & Observations

Time (MST) Temp. Windchill Dew Point Humidity Pressure Visibility Wind Dir Wind Speed Gust Speed Precip Events Conditions
12:56 AM 34.0 °F 26.6 °F 28.9 °F 82% 30.00 in - West 9.2 mph - N/A   Unknown
1:56 AM 34.0 °F 26.0 °F 28.9 °F 82% 30.02 in - West 10.4 mph - N/A   Unknown
2:56 AM 37.0 °F 28.9 °F 30.9 °F 79% 30.04 in - West 12.7 mph - N/A   Unknown
3:56 AM 37.0 °F 28.1 °F 30.9 °F 79% 30.06 in - West 15.0 mph - N/A   Unknown
4:56 AM 37.0 °F 28.9 °F 30.9 °F 79% 30.09 in - West 12.7 mph - N/A   Unknown
5:56 AM 37.9 °F 27.6 °F 30.9 °F 76% 30.11 in - WNW 20.7 mph 24.2 mph N/A   Unknown
6:56 AM 37.0 °F 25.9 °F 30.0 °F 76% 30.15 in - NW 23.0 mph 29.9 mph N/A   Unknown
7:56 AM 37.0 °F 26.7 °F 30.0 °F 76% 30.18 in - NW 19.6 mph 24.2 mph N/A   Unknown
8:56 AM 39.0 °F 27.6 °F 28.0 °F 65% 30.20 in - NW 27.6 mph 35.7 mph N/A   Unknown
9:56 AM 42.1 °F 32.6 °F 28.0 °F 58% 30.21 in - NW 23.0 mph - N/A   Unknown
10:56 AM 43.0 °F 34.2 °F 27.0 °F 53% 30.24 in - NW 20.7 mph 29.9 mph N/A   Unknown
11:56 AM 43.0 °F 33.3 °F 24.1 °F 47% 30.25 in - WNW 25.3 mph 31.1 mph N/A   Unknown
12:56 PM 44.1 °F 35.4 °F 23.0 °F 43% 30.25 in - NW 21.9 mph - N/A   Unknown
1:56 PM 44.1 °F 36.5 °F 21.9 °F 42% 30.27 in - NW 17.3 mph 25.3 mph N/A   Unknown
2:56 PM 43.0 °F 34.2 °F 21.0 °F 42% 30.29 in - NW 20.7 mph - N/A   Unknown
3:56 PM 39.0 °F 31.8 °F 21.9 °F 50% 30.31 in - NNW 11.5 mph - N/A   Unknown
4:56 PM 33.1 °F - 21.9 °F 64% 30.35 in - Calm Calm - N/A   Unknown
5:56 PM 30.9 °F 22.2 °F 21.9 °F 69% 30.36 in - North 10.4 mph - N/A   Unknown
6:56 PM 30.9 °F 26.2 °F 21.9 °F 69% 30.37 in - NNW 4.6 mph - N/A   Unknown
7:56 PM 30.9 °F 26.2 °F 21.9 °F 69% 30.38 in - NW 4.6 mph - N/A   Unknown
8:56 PM 32.0 °F - 21.9 °F 66% 30.37 in - Calm Calm - N/A   Unknown
9:56 PM 25.0 °F 15.5 °F 19.9 °F 81% 30.37 in - SSE 9.2 mph - N/A   Unknown
10:56 PM 24.1 °F 14.4 °F 19.9 °F 84% 30.36 in - South 9.2 mph - N/A   Unknown
11:56 PM 23.0 °F 12.4 °F 19.0 °F 85% 30.36 in - South 10.4 mph - N/A   Unknown